Weather Roundup
Issued by NWS Chicago, IL

Home | Current Version | Previous Version | Text Only | Print | Product List | Glossary On
Versions: 1 2 3 4 5 6 7 8 9 10 11 12 13 14 15 16 17 18 19 20 21 22 23 24 25 26 27 28 29 30 31 32 33 34 35 36 37 38 39 40 41 42 43 44 45 46 47 48 49 50
000
NZUS59 KLOT 260821
HRRLOT

CHICAGO AREA WEATHER ROUNDUP
NATIONAL WEATHER SERVICE CHICAGO/ROMEOVILLE IL
300 AM CDT SUN APR 26 2015

NOTE: "FAIR" INDICATES FEW OR NO CLOUDS BELOW 12,000 FEET WITH NO
SIGNIFICANT WEATHER AND/OR OBSTRUCTIONS TO VISIBILITY.

* THESE STATIONS ARE NOT UNDER NWS QUALITY CONTROL. THEY ALSO MAY NOT
  REPORT WEATHER SUCH AS PRECIPITATION OR FOG.

ILZ005-006-012>014-019>023-260900-
NORTHEAST ILLINOIS

CITY           SKY/WX    TMP DP  RH WIND       PRES   REMARKS
OHARE          CLEAR     37  29  72 N7        29.89R
MIDWAY         MOCLDY    41  33  73 N9        29.88S
AURORA         CLEAR     38  27  64 N9        29.90R
LANSING*       CLEAR     37  34  87 N3        29.87S
JOLIET*        PTCLDY    40  32  74 N6        29.89R
WAUKEGAN       CLEAR     35  29  78 N6        29.92R WCI  30
DUPAGE AIRPORT CLEAR     33  27  78 N8        29.89R WCI  26
WHEELING       CLEAR     35  29  78 N5        29.92R WCI  31
KANKAKEE*      CLEAR     39  35  85 NW3       29.87S
MORRIS*        PTCLDY    36  31  85 N3        29.85S
LEWIS AIRPORT* PTCLDY    37  31  78 N10       29.88R
NORTHERLY IS     N/A     42  34  73 N13         N/A
$$

WIZ051-052-058>065-066-070>072-260900-
SOUTHEAST WISCONSIN

CITY           SKY/WX    TMP DP  RH WIND       PRES   REMARKS
MILWAUKEE      CLEAR     36  28  73 N7        29.95R
KENOSHA*       CLEAR     35  30  82 N8        29.92R WCI  29
RACINE*        CLEAR     36  28  73 N8        29.95R
BURLINGTON     CLEAR     29  23  77 N3        29.93R
WAUKESHA       CLEAR     34  27  75 CALM      29.95R
WEST BEND      CLEAR     34  27  75 N3        29.95S
$$

INZ001>003-010>013-019-020-260900-
NORTHWEST INDIANA

CITY           SKY/WX    TMP DP  RH WIND       PRES   REMARKS
GARY*          CLEAR     40  35  81 NE9       29.87S
MICHIGAN CITY* NOT AVBL
RENSSELAER*    NOT AVBL
VALPARAISO     PTCLDY    36  33  89 N6        29.86R
$$

LMZ740>746-260900-
SOUTHERN LAKE MICHIGAN

STATION/POSITION TIME  SKY/WX   TEMP WIND        PRES    VSBY
                                AIR  DIR/SP/G
                 (UTC)          (F)  (DEG/KT/KT) (MB)    (MI)
HARRISON CRIB    0800            41   40/ 16/ 19   N/A
BURNHAM HARBOR   0800            42   30/ 12       N/A
CALUMET HARBOR   0700            41   10/  6/ 10   N/A
BURNS HARBOR     0700            42   10/  9/ 10 1011.9R
MICHIGAN CITY    0800            44   20/ 16/ 19   N/A
$$

ABBREVIATIONS USED IN REMARKS
   TC - TEMPERATURE IN CELSIUS
  WCI - WIND CHILL INDEX
   HX - HEAT INDEX
  VSB - VISIBILITY
$$


USA.gov is the U.S. government's official web portal to all federal, state and local government web resources and services.